N206PG KLAX-KIWS

Flight info

Callsign N206PG
Flight time N/A
Altitude 41000
Route LAXX1 TRM J169 TFD J50 ALIBY J2 FST J138 SAT TSHRT2
Aircraft C25C/L-SDE2E3FGIJ1RWYZ/LB1

Departure

Time 2026-04-20 14:15
Airport Los Angeles International Airport (KLAX)

Arrival

Time N/A
Airport West Houston Airport (KIWS)
Time Latitude Longitude Altitude Speed Heading
2026-04-20 13:48 33.93917 -118.41916 119 ft 0 kts 84°
2026-04-20 14:00 33.93916 -118.41923 101 ft 2 kts 63°
2026-04-20 14:00 33.93903 -118.41935 116 ft 2 kts
2026-04-20 14:01 33.93894 -118.41933 117 ft 0 kts 327°
2026-04-20 14:05 33.93896 -118.41934 119 ft 3 kts 326°
2026-04-20 14:05 33.93912 -118.41950 119 ft 0 kts 273°
2026-04-20 14:05 33.93875 -118.41983 119 ft 16 kts 176°
2026-04-20 14:06 33.93775 -118.41980 118 ft 11 kts 215°
2026-04-20 14:06 33.93753 -118.42035 120 ft 6 kts 263°
2026-04-20 14:06 33.93746 -118.42101 120 ft 12 kts 263°
2026-04-20 14:06 33.93731 -118.42236 120 ft 20 kts 263°
2026-04-20 14:07 33.93710 -118.42437 120 ft 28 kts 262°
2026-04-20 14:07 33.93727 -118.42644 120 ft 24 kts 342°
2026-04-20 14:07 33.93880 -118.42666 120 ft 20 kts 353°
2026-04-20 14:07 33.94044 -118.42689 120 ft 27 kts 353°
2026-04-20 14:08 33.94249 -118.42721 119 ft 29 kts 352°
2026-04-20 14:08 33.94419 -118.42746 119 ft 28 kts 354°
2026-04-20 14:08 33.94576 -118.42769 119 ft 24 kts 353°
2026-04-20 14:08 33.94634 -118.42720 119 ft 12 kts 88°
2026-04-20 14:09 33.94646 -118.42593 118 ft 19 kts 83°
2026-04-20 14:09 33.94665 -118.42404 119 ft 26 kts 83°
2026-04-20 14:09 33.94691 -118.42160 119 ft 32 kts 83°
2026-04-20 14:09 33.94721 -118.41868 119 ft 38 kts 83°
2026-04-20 14:10 33.94755 -118.41536 119 ft 42 kts 83°
2026-04-20 14:10 33.94805 -118.41183 118 ft 45 kts 83°
2026-04-20 14:10 33.94829 -118.40942 119 ft 15 kts 83°
2026-04-20 14:10 33.94830 -118.40927 119 ft 3 kts 83°
2026-04-20 14:11 33.94836 -118.40866 119 ft 12 kts 83°
2026-04-20 14:11 33.94848 -118.40734 117 ft 20 kts 83°
2026-04-20 14:11 33.94866 -118.40539 119 ft 27 kts 84°
2026-04-20 14:11 33.94897 -118.40290 119 ft 33 kts 82°
2026-04-20 14:12 33.94936 -118.40173 119 ft 0 kts
2026-04-20 14:12 33.94954 -118.40170 119 ft 7 kts
2026-04-20 14:13 33.95000 -118.40196 118 ft 10 kts 301°
2026-04-20 14:13 33.95007 -118.40298 119 ft 10 kts 263°
2026-04-20 14:13 33.95006 -118.40304 119 ft 0 kts 262°
2026-04-20 14:15 33.94988 -118.40467 118 ft 61 kts 262°
2026-04-20 14:15 33.94895 -118.41359 161 ft 148 kts 263°
2026-04-20 14:15 33.94769 -118.42817 766 ft 198 kts 266°
2026-04-20 14:16 33.94891 -118.44562 1870 ft 229 kts 278°
2026-04-20 14:16 33.94654 -118.46634 2491 ft 275 kts 250°
2026-04-20 14:16 33.93587 -118.48562 3104 ft 269 kts 218°
2026-04-20 14:16 33.91990 -118.49306 3698 ft 240 kts 181°
2026-04-20 14:17 33.90484 -118.48714 4293 ft 231 kts 141°
2026-04-20 14:17 33.89666 -118.47066 4913 ft 229 kts 102°
2026-04-20 14:17 33.89623 -118.45146 5511 ft 241 kts 84°
2026-04-20 14:17 33.90061 -118.43036 6147 ft 278 kts 75°
2026-04-20 14:18 33.90502 -118.40637 6783 ft 309 kts 84°
2026-04-20 14:18 33.90624 -118.37973 7409 ft 326 kts 93°
2026-04-20 14:18 33.90412 -118.35337 8014 ft 298 kts 102°
2026-04-20 14:18 33.89896 -118.32992 8634 ft 296 kts 114°
2026-04-20 14:19 33.88948 -118.30698 9279 ft 318 kts 122°
2026-04-20 14:19 33.87809 -118.28299 9943 ft 341 kts 122°
2026-04-20 14:19 33.86758 -118.25847 10454 ft 326 kts 118°
2026-04-20 14:19 33.85766 -118.23330 10928 ft 339 kts 118°
2026-04-20 14:20 33.84706 -118.20752 11419 ft 349 kts 119°
2026-04-20 14:20 33.83596 -118.18117 11922 ft 357 kts 120°
2026-04-20 14:20 33.82479 -118.15442 12629 ft 358 kts 119°
2026-04-20 14:20 33.81373 -118.12780 13225 ft 361 kts 119°
2026-04-20 14:21 33.80275 -118.10127 14220 ft 352 kts 119°